Location: ČR
(50.0000°N, 15.0000°E)
Time: 07:01:51
(UTC+02:00)

A-11 Canister half - Pass Details

Date: 18 March 2026
Orbit: 1514 x 1685 km, 47.2° (Epoch: 18 April)

Event Time Altitude Azimuth Distance (km) Brightness Sun altitude
Rises 16:55:34 0° 274° (W) 4,893 13.2 10.9°
Reaches altitude 10° 16:58:42 10° 273° (W) 3,921 13.0 10.4°
Maximum altitude 17:08:46 74° 191° (S) 1,743 9.6 8.9°
Drops below altitude 10° 17:18:53 10° 109° (ESE) 3,939 10.6 7.3°
Sets 17:22:02 0° 108° (ESE) 4,916 11.1 6.8°
